This is the latest recevied weather packets stored in our database for station/object KO4FR. If no packets are shown the sender has not sent any weather packets the latest 1 day(s).
| Time | Temp. | Humidity | Pressure | Rain* | Wind** | Luminosity | Snow |
|---|---|---|---|---|---|---|---|
| 1778006701 | 27.78° C | 29% | 1014.4 hPa | 0 mm | 0 m/s | - | - |
| 1778006401 | 27.78° C | 28% | 1014.5 hPa | 0 mm | 0 m/s | - | - |
| 1778006101 | 27.78° C | 29% | 1014.7 hPa | 0 mm | 0 m/s | - | - |
| 1778005801 | 27.78° C | 29% | 1014.7 hPa | 0 mm | 0 m/s | - | - |
| 1778005501 | 27.78° C | 30% | 1014.7 hPa | 0 mm | 0 m/s | - | - |
| 1778005201 | 27.78° C | 28% | 1015 hPa | 0 mm | 0 m/s | - | - |
| 1778004901 | 27.22° C | 29% | 1015 hPa | 0 mm | 0 m/s | - | - |
| 1778004600 | 27.22° C | 28% | 1015.1 hPa | 0 mm | 0 m/s | - | - |
| 1778004300 | 27.22° C | 30% | 1015 hPa | 0 mm | 0 m/s | - | - |
| 1778004000 | 27.22° C | 30% | 1015.1 hPa | 0 mm | 0 m/s | - | - |
| 1778003700 | 27.78° C | 29% | 1015.1 hPa | 0 mm | 0 m/s | - | - |
| 1778003400 | 27.78° C | 31% | 1015.1 hPa | 0 mm | 0 m/s | - | - |
| 1778003100 | 27.22° C | 28% | 1015.1 hPa | 0 mm | 0 m/s | - | - |
| 1778002802 | 27.22° C | 30% | 1015.2 hPa | 0 mm | 0 m/s | - | - |
| 1778002501 | 27.22° C | 30% | 1015.3 hPa | 0 mm | 0 m/s | - | - |
| 1778002201 | 27.22° C | 30% | 1015.4 hPa | 0 mm | 0 m/s | - | - |
| 1778001901 | 26.67° C | 32% | 1015.3 hPa | 0 mm | 0 m/s | - | - |
| 1778001601 | 26.67° C | 32% | 1015.3 hPa | 0 mm | 0 m/s | - | - |
| 1778001301 | 26.67° C | 33% | 1015.4 hPa | 0 mm | 0 m/s | - | - |
| 1778001000 | 26.67° C | 33% | 1015.5 hPa | 0 mm | 0 m/s | - | - |
| 1778000701 | 26.67° C | 34% | 1015.3 hPa | 0 mm | 0 m/s | - | - |
| 1778000401 | 26.67° C | 33% | 1015.5 hPa | 0 mm | 0 m/s | - | - |
| 1778000100 | 26.67° C | 35% | 1015.5 hPa | 0 mm | 0 m/s | - | - |
| 1777999800 | 26.67° C | 35% | 1015.6 hPa | 0 mm | 0 m/s | - | - |
| 1777999501 | 26.11° C | 36% | 1015.8 hPa | 0 mm | 0.45 m/s, 88° | - | - |
* Rain latest hour (hover to see other rain measurements)
** Current wind speed in m/s (hover to see current wind gust speed)